[[{"header":{"parameterUnit":"m.s-1","parameterCategory":2,"la1":30.2991,"la2":30.254,"lo1":-89.0895,"lo2":-89.0444,"dy":0.0017,"dx":0.0017,"nx":28,"ny":28,"refTime":"2025-07-05T03:00:00:Z","depth":"0","parameterNumber":2,"parameterNumberName":"U-component_of_CURRENTS"},"data":[0,0,0,0,0,0,0,0,0,0,0,0,0,0,0,0,0,0,0,0,0,0,0,0,0,0,0,0,0,0,0,0,0,0,0,0,0,0,0,0,0,0,0,0,0,0,0,0,0,0,0,0,0,0,0,0,0,0,0.1963,0.1962,0,0.1856,0.1854,0.1853,0.1704,0.1701,0.1699,0.1696,0.1601,0.1601,0.1601,0,0,0,0,0,0,0,0,0,0,0,0,0,0.2171,0.2167,0.1963,0.1962,0.1961,0.1856,0.1854,0.1853,0.1704,0.1701,0.1698,0.1695,0.1601,0.1601,0.1601,0,0,0,0,0,0,0,0,0,0,0,0,0,0.2073,0.2166,0.1964,0.1875,0.1866,0.1856,0.1854,0.1852,0.1705,0.1701,0.1697,0.1694,0.1601,0.1601,0.1601,0.1672,0,0,0.1599,0.1599,0,0,0,0,0,0,0,0,0.2078,0.2065,0.1889,0.1881,0.1871,0.179,0.1893,0.1793,0.1706,0.1765,0.1696,0.1692,0.1669,0.1663,0.1649,0.1667,0.1663,0.1599,0.1599,0.1599,0.1599,0,0,0,0,0,0,0,0.2085,0.207,0.192,0.1888,0.1877,0.1885,0.1866,0.1874,0.1738,0.1759,0.1748,0.1739,0.1663,0.165,0.1646,0.1662,0.1599,0.1599,0.1599,0.1599,0.1872,0.1879,0,0,0,0,0,0,0.2097,0.2075,0.1923,0.1917,0.1969,0.1884,0.1863,0.1819,0.1737,0.1722,0.1743,0.1733,0.1652,0.1646,0.1642,0.1786,0.1599,0.1599,0.1598,0.1864,0.1874,0.1882,0,0,0,0,0,0,0.2102,0.2083,0.1927,0.1997,0.1977,0.1883,0.1837,0.1819,0.1796,0.1725,0.1708,0.1736,0.1649,0.1642,0.1682,0.1779,0.1598,0.1598,0.1856,0.1867,0.1878,0.2034,0,0,0,0,0,0,0.2107,0.2085,0.2083,0.1996,0.1974,0.1957,0.184,0.1819,0.1797,0.1782,0.1716,0.1702,0.1646,0.1684,0.1682,0.1775,0.1598,0.1846,0.1861,0.1874,0.2019,0.2049,0.2075,0,0,0,0,0,0.2115,0.2143,0.2083,0.2066,0.1964,0.1961,0.1953,0.1873,0.18,0.183,0.1785,0.1704,0.1773,0.1688,0.1685,0.178,0.1839,0.1857,0.1873,0.2007,0.2043,0.2074,0,0,0,0,0,0,0.2263,0.2127,0.206,0.2049,0.2017,0.1936,0.1969,0.1893,0.1877,0.1863,0.1769,0.1758,0.1838,0.1813,0.1721,0.1917,0.1808,0.1825,0.1911,0.1945,0.1972,0.1881,0.1597,0,0,0,0,0,0.2287,0.2255,0.2151,0.216,0.2144,0.2054,0.2045,0.1985,0.1948,0.1932,0.1879,0.1874,0.1915,0.1924,0.1946,0.2034,0.2035,0.2114,0.2142,0.2164,0.21,0.2276,0.2311,0.1937,0.1937,0.1936,0,0,0.2351,0.2279,0.2261,0.2189,0.2154,0.2145,0.2041,0.2049,0.2038,0.1935,0.1941,0.1958,0.1963,0.2062,0.2101,0.2042,0.2285,0.2186,0.2204,0.2125,0.2296,0.2332,0.2363,0.1948,0.1946,0.1944,0,0,0.247,0.2399,0.2399,0.2369,0.2317,0.2262,0.2264,0.2188,0.2158,0.2193,0.2128,0.2187,0.2234,0.2241,0.2259,0.2463,0.2426,0.2519,0.2569,0.2745,0.2774,0.28,0.2875,0.2906,0.2533,0.2533,0.2534,0,0.2554,0.2508,0.2424,0.242,0.2408,0.2311,0.2327,0.2298,0.2246,0.2257,0.2231,0.2332,0.2315,0.2423,0.2474,0.2513,0.258,0.2427,0.2773,0.2799,0.2822,0.2893,0.2925,0.2543,0.2542,0.2541,0.254,0,0.2641,0.2612,0.264,0.2561,0.2557,0.258,0.2502,0.2513,0.2481,0.2444,0.2551,0.2559,0.2612,0.2663,0.2601,0.2779,0.2764,0.2785,0.2663,0.2867,0.2932,0.2962,0.2557,0.2553,0.255,0.2548,0,0,0.2786,0.2704,0.271,0.2674,0.2626,0.2618,0.2655,0.2652,0.2652,0.2691,0.2742,0.2823,0.2813,0.283,0.2821,0.292,0.3134,0.2906,0.2911,0.2929,0.3481,0.3432,0.3458,0.3247,0.3252,0.3257,0.3465,0,0.2874,0.2877,0.2822,0.2836,0.2822,0.2771,0.279,0.2784,0.279,0.2821,0.2879,0.2924,0.2889,0.292,0.3038,0.3075,0.3218,0.3069,0.3317,0.332,0.3214,0.3494,0.3391,0.3566,0.3494,0.3499,0.3502,0,0.2947,0.293,0.2954,0.2902,0.2897,0.2899,0.291,0.2911,0.2946,0.2964,0.3056,0.3061,0.3156,0.3131,0.3356,0.3277,0.3385,0.3434,0.3447,0.3338,0.3329,0.3353,0.3622,0.3444,0.3547,0.3544,0.3541,0,0.3024,0.3011,0.3026,0.3011,0.2957,0.298,0.2964,0.2973,0.2976,0.3037,0.3081,0.321,0.3268,0.3448,0.3514,0.348,0.3762,0.376,0.3834,0.3829,0.3742,0.3719,0.3808,0.4003,0.4002,0.4002,0.4001,0,0.3092,0.3092,0.3053,0.3044,0.306,0.3015,0.3038,0.3038,0.3067,0.3083,0.3143,0.3206,0.3361,0.3511,0.3603,0.3791,0.3887,0.3858,0.3913,0.38,0.3781,0.3614,0.3515,0.401,0.4008,0.4006,0.4005,0,0.3128,0.3114,0.3104,0.3081,0.3075,0.3075,0.3051,0.3052,0.3084,0.3127,0.3153,0.3254,0.3434,0.3585,0.3831,0.3896,0.3957,0.4133,0.3919,0.3945,0.3805,0.372,0.3714,0.362,0.4253,0.4254,0.4254,0,0.3126,0.313,0.3122,0.3105,0.3084,0.3078,0.306,0.3065,0.3061,0.3144,0.3167,0.3343,0.344,0.3755,0.3925,0.4149,0.4003,0.4156,0.4072,0.3799,0.3749,0.3568,0.3475,0.4036,0.4035,0.4034,0.4033,0,0.3105,0.3116,0.31,0.3092,0.3071,0.3049,0.303,0.3038,0.3045,0.3093,0.3152,0.3239,0.3532,0.3675,0.3951,0.4085,0.3905,0.4138,0.3972,0.3672,0.3371,0.3304,0.3813,0.4023,0.4024,0.4024,0.4025,0.4025,0.3069,0.3068,0.3058,0.3036,0.3018,0.2984,0.2945,0.2946,0.295,0.2972,0.3095,0.3196,0.3412,0.3779,0.3876,0.3912,0.3888,0.3826,0.3773,0.3632,0.3449,0.3871,0.4068,0.4069,0.407,0.4071,0.4072,0,0.2988,0.2995,0.2984,0.2942,0.2893,0.2914,0.2879,0.2827,0.2803,0.2896,0.2949,0.3145,0.3289,0.3473,0.3606,0.352,0.3425,0.3427,0.3146,0.3101,0.3607,0.3499,0.344,0.344,0.344,0.3441,0.3441,0.3441,0.294,0.2907,0.2912,0.281,0.278,0.2688,0.2654,0.262,0.2654,0.2685,0.277,0.2893,0.3058,0.3155,0.3097,0.3086,0.2827,0.2763,0.271,0.3032,0.3062,0.3091,0.2966,0.2797,0.2796,0.2108,0.2102,0.2098]},{"header":{"parameterUnit":"m.s-1","parameterCategory":2,"la1":30.2991,"la2":30.254,"lo1":-89.0895,"lo2":-89.0444,"dy":0.0017,"dx":0.0017,"nx":28,"ny":28,"refTime":"2025-07-05T03:00:00:Z","depth":"0","parameterNumber":3,"parameterNumberName":"V-component_of_CURRENTS"},"data":[0,0,0,0,0,0,0,0,0,0,0,0,0,0,0,0,0,0,0,0,0,0,0,0,0,0,0,0,0,0,0,0,0,0,0,0,0,0,0,0,0,0,0,0,0,0,0,0,0,0,0,0,0,0,0,0,0,0,-0.0372,-0.0373,0,-0.0453,-0.0454,-0.0454,-0.0557,-0.0559,-0.0561,-0.0563,-0.0563,-0.0562,-0.056,0,0,0,0,0,0,0,0,0,0,0,0,0,-0.0293,-0.0294,-0.0372,-0.0373,-0.0374,-0.0453,-0.0454,-0.0454,-0.0557,-0.0559,-0.0561,-0.0563,-0.0564,-0.0562,-0.056,0,0,0,0,0,0,0,0,0,0,0,0,0,-0.0343,-0.0294,-0.0372,-0.0437,-0.0444,-0.0453,-0.0454,-0.0455,-0.0556,-0.0559,-0.0562,-0.0565,-0.0565,-0.0562,-0.0559,-0.0486,0,0,-0.0551,-0.055,0,0,0,0,0,0,0,0,-0.034,-0.0346,-0.0426,-0.0433,-0.044,-0.05,-0.0427,-0.0462,-0.0555,-0.051,-0.0563,-0.0566,-0.0534,-0.0534,-0.054,-0.0486,-0.0486,-0.0551,-0.0549,-0.0548,-0.0548,0,0,0,0,0,0,0,-0.0337,-0.0343,-0.0401,-0.0427,-0.0436,-0.0458,-0.0468,-0.0434,-0.0501,-0.0515,-0.0523,-0.0536,-0.0538,-0.0543,-0.0541,-0.0486,-0.0551,-0.0549,-0.0547,-0.0546,-0.0299,-0.0295,0,0,0,0,0,0,-0.033,-0.0339,-0.0399,-0.0404,-0.04,-0.0458,-0.0469,-0.0476,-0.0504,-0.0513,-0.0533,-0.054,-0.0546,-0.0544,-0.0541,-0.0401,-0.0548,-0.0546,-0.0544,-0.0304,-0.0298,-0.0293,0,0,0,0,0,0,-0.0328,-0.0334,-0.0395,-0.0376,-0.0386,-0.0456,-0.0463,-0.0476,-0.0479,-0.052,-0.0527,-0.0524,-0.0548,-0.0545,-0.0486,-0.0404,-0.0545,-0.0542,-0.031,-0.0302,-0.0296,-0.0155,0,0,0,0,0,0,-0.0325,-0.0333,-0.032,-0.0375,-0.0387,-0.0369,-0.0461,-0.0476,-0.0484,-0.0494,-0.0513,-0.0517,-0.055,-0.0489,-0.0483,-0.0403,-0.054,-0.0316,-0.0307,-0.0298,-0.0166,-0.0144,-0.0125,0,0,0,0,0,-0.0322,-0.0288,-0.0319,-0.0326,-0.0373,-0.0367,-0.0372,-0.0431,-0.048,-0.045,-0.0469,-0.0516,-0.0426,-0.0483,-0.0477,-0.0395,-0.0321,-0.0309,-0.0299,-0.0175,-0.0148,-0.0125,0,0,0,0,0,0,-0.0236,-0.0297,-0.0332,-0.0317,-0.0329,-0.0385,-0.0364,-0.0409,-0.0402,-0.041,-0.0461,-0.0462,-0.0377,-0.0391,-0.0454,-0.029,-0.0376,-0.0363,-0.0284,-0.0259,-0.0238,-0.0228,-0.0538,0,0,0,0,0,-0.0213,-0.021,-0.0261,-0.024,-0.0244,-0.0299,-0.0303,-0.0339,-0.0353,-0.0357,-0.0369,-0.036,-0.0321,-0.03,-0.0271,-0.0181,-0.0196,-0.0116,-0.0096,-0.0079,-0.006,0.0006,0.0033,-0.0256,-0.0256,-0.0256,0,0,-0.0174,-0.0206,-0.0203,-0.0222,-0.0241,-0.0206,-0.0306,-0.0292,-0.0257,-0.0348,-0.0282,-0.0287,-0.0279,-0.0187,-0.0148,-0.0193,-0.0004,-0.0064,-0.005,-0.0041,0.002,0.0048,0.0072,-0.0249,-0.025,-0.0251,0,0,-0.0076,-0.0116,-0.0074,-0.0077,-0.0095,-0.0123,-0.0111,-0.0142,-0.0147,-0.0088,-0.0137,-0.0088,-0.004,-0.0015,0.0001,0.0167,0.0102,0.0179,0.0291,0.0356,0.0379,0.0399,0.0399,0.0419,0.019,0.019,0.019,0,-0.0017,0.0003,-0.0051,-0.0006,-0.0005,-0.0074,-0.002,-0.001,-0.0014,0.0003,-0.004,0.0053,0.0051,0.0166,0.0213,0.0214,0.0208,0.0184,0.0379,0.0399,0.0417,0.0413,0.0432,0.0198,0.0197,0.0197,0.0196,0,0.0106,0.0123,0.0156,0.0176,0.0189,0.0223,0.021,0.024,0.0215,0.021,0.0304,0.0307,0.0353,0.0377,0.0338,0.0483,0.0422,0.0391,0.0303,0.0454,0.044,0.0458,0.021,0.0207,0.0205,0.0203,0,0,0.0231,0.0236,0.0247,0.026,0.0272,0.0289,0.0372,0.041,0.0457,0.0483,0.0562,0.0632,0.0603,0.0624,0.06,0.0654,0.0765,0.058,0.0579,0.0557,0.0864,0.08,0.0811,0.0759,0.0764,0.0767,0.0794,0,0.0341,0.0418,0.0404,0.0493,0.0523,0.0492,0.0568,0.0599,0.0616,0.0688,0.0708,0.0778,0.071,0.0731,0.0788,0.0773,0.0821,0.0758,0.0742,0.0741,0.0648,0.0835,0.0814,0.0837,0.081,0.0813,0.0815,0,0.0462,0.0482,0.0563,0.0593,0.061,0.0665,0.0723,0.0784,0.0865,0.0881,0.0951,0.095,0.1046,0.0961,0.1033,0.0989,0.0949,0.0925,0.0925,0.0831,0.0713,0.069,0.0868,0.0661,0.0841,0.0839,0.0837,0,0.052,0.0594,0.0639,0.0652,0.0696,0.0737,0.0771,0.0841,0.0899,0.1004,0.1061,0.1147,0.1196,0.1201,0.114,0.1098,0.119,0.1123,0.1028,0.1018,0.0984,0.0965,0.0945,0.1191,0.1191,0.1191,0.1191,0,0.0606,0.0648,0.0663,0.0685,0.0763,0.0782,0.0882,0.0925,0.1025,0.1126,0.116,0.1261,0.1261,0.1295,0.1223,0.1187,0.1259,0.1091,0.1057,0.103,0.1016,0.0815,0.0708,0.1192,0.1192,0.1192,0.1192,0,0.0643,0.0657,0.0709,0.0757,0.0781,0.083,0.0924,0.1002,0.1084,0.1225,0.1268,0.1373,0.1427,0.139,0.1394,0.129,0.1159,0.1208,0.1141,0.1101,0.0809,0.0712,0.0707,0.0652,0.1134,0.1133,0.1132,0,0.0652,0.0681,0.0739,0.0774,0.0793,0.0868,0.0931,0.1018,0.1107,0.1293,0.1375,0.1477,0.1564,0.1535,0.1406,0.1301,0.1143,0.1155,0.1092,0.0835,0.0703,0.0648,0.0598,0.1087,0.1086,0.1085,0.1085,0,0.0662,0.0684,0.0717,0.0791,0.0853,0.0939,0.1036,0.1115,0.1246,0.1371,0.1538,0.1629,0.1629,0.1563,0.1404,0.1297,0.102,0.113,0.0924,0.0736,0.0625,0.0539,0.0964,0.1077,0.1078,0.1078,0.1079,0.1079,0.0651,0.0683,0.0732,0.0807,0.089,0.1004,0.1078,0.1203,0.1352,0.1551,0.1632,0.1787,0.1671,0.1489,0.1297,0.0906,0.0957,0.0764,0.0686,0.0666,0.058,0.0955,0.0988,0.0988,0.0989,0.0989,0.0989,0,0.0627,0.068,0.0749,0.0846,0.0939,0.0989,0.1146,0.1233,0.1401,0.1607,0.1752,0.1817,0.1568,0.1307,0.0832,0.0513,0.0432,0.0333,0.0249,0.0237,0.0622,0.058,0.0456,0.0456,0.0456,0.0457,0.0457,0.0457,0.0615,0.0671,0.0723,0.0861,0.094,0.106,0.1147,0.1293,0.1455,0.1693,0.1839,0.1969,0.1774,0.084,0.0181,0.0053,-0.0163,-0.019,-0.0281,-0.0074,-0.0041,-0.0009,-0.0074,-0.0332,-0.0333,-0.0622,-0.0625,-0.0628]}],[{"header":{"parameterUnit":"m.s-1","parameterCategory":2,"la1":30.2991,"la2":30.254,"lo1":-89.0895,"lo2":-89.0444,"dy":0.0017,"dx":0.0017,"nx":28,"ny":28,"refTime":"2025-07-05T03:00:00:Z","depth":"2","parameterNumber":2,"parameterNumberName":"U-component_of_CURRENTS"},"data":[0,0,0,0,0,0,0,0,0,0,0,0,0,0,0,0,0,0,0,0,0,0,0,0,0,0,0,0,0,0,0,0,0,0,0,0,0,0,0,0,0,0,0,0,0,0,0,0,0,0,0,0,0,0,0,0,0,0,0.1654,0.1653,0,0.1619,0.1618,0.1618,0.154,0.1538,0.1537,0.1535,0.1504,0.1504,0.1505,0,0,0,0,0,0,0,0,0,0,0,0,0,0.1703,0.1702,0.1654,0.1653,0.1653,0.1619,0.1618,0.1617,0.154,0.1538,0.1536,0.1535,0.1504,0.1504,0.1505,0,0,0,0,0,0,0,0,0,0,0,0,0,0.1674,0.1702,0.1654,0.1612,0.1608,0.1619,0.1618,0.1617,0.154,0.1538,0.1536,0.1534,0.1504,0.1504,0.1505,0.1553,0,0,0.1507,0.1508,0,0,0,0,0,0,0,0,0.1676,0.1672,0.1618,0.1614,0.161,0.1583,0.1624,0.1596,0.1541,0.1564,0.1535,0.1533,0.1533,0.1532,0.1527,0.1551,0.155,0.1507,0.1508,0.1508,0.1508,0,0,0,0,0,0,0,0.1678,0.1674,0.1638,0.1618,0.1613,0.1612,0.1604,0.1618,0.156,0.1562,0.1557,0.1556,0.1531,0.1527,0.1526,0.1549,0.1507,0.1508,0.1508,0.1509,0.1673,0.1676,0,0,0,0,0,0,0.1686,0.1676,0.1639,0.1637,0.164,0.1612,0.1604,0.1592,0.156,0.1553,0.1558,0.1553,0.1526,0.1525,0.1525,0.1638,0.1508,0.1509,0.1509,0.1669,0.1673,0.1678,0,0,0,0,0,0,0.1687,0.1682,0.1641,0.1658,0.1652,0.1614,0.1601,0.1593,0.1589,0.1557,0.1549,0.1563,0.1525,0.1524,0.1558,0.1634,0.1509,0.151,0.1664,0.167,0.1676,0.1827,0,0,0,0,0,0,0.1688,0.1683,0.1693,0.1658,0.1652,0.1668,0.1603,0.1594,0.1593,0.1586,0.1559,0.1553,0.1523,0.1558,0.1559,0.1632,0.151,0.1659,0.1667,0.1674,0.1817,0.1837,0.1855,0,0,0,0,0,0.169,0.1711,0.1693,0.169,0.1661,0.1671,0.1669,0.1632,0.1596,0.1616,0.1598,0.1554,0.1605,0.1561,0.1562,0.1637,0.1656,0.1665,0.1673,0.1809,0.1833,0.1854,0,0,0,0,0,0,0.1746,0.1704,0.1684,0.1693,0.1693,0.1658,0.168,0.1648,0.1648,0.1643,0.1596,0.1592,0.1655,0.163,0.1583,0.171,0.1628,0.1637,0.1731,0.1754,0.1772,0.1748,0.1511,0,0,0,0,0,0.1764,0.1762,0.1734,0.1749,0.1752,0.1719,0.1721,0.1698,0.1687,0.1682,0.1666,0.1666,0.1696,0.1707,0.1723,0.1788,0.1775,0.1841,0.186,0.1876,0.186,0.1932,0.1956,0.1706,0.1706,0.1706,0,0,0.1788,0.177,0.1768,0.1761,0.1756,0.1774,0.1715,0.1733,0.1753,0.1685,0.1723,0.1731,0.1728,0.1803,0.183,0.1787,0.1949,0.1887,0.1901,0.1875,0.1944,0.1968,0.1989,0.1712,0.1711,0.171,0,0,0.1836,0.1827,0.1837,0.1845,0.1847,0.1836,0.1845,0.1829,0.1832,0.1875,0.1843,0.1888,0.1919,0.1937,0.1949,0.2083,0.2046,0.2105,0.2179,0.2252,0.2272,0.2289,0.233,0.235,0.2114,0.2115,0.2115,0,0.187,0.1867,0.1852,0.1873,0.1884,0.1865,0.1889,0.1908,0.1908,0.1931,0.1909,0.1989,0.1983,0.2075,0.2118,0.2124,0.2146,0.2091,0.2275,0.2292,0.2307,0.2344,0.2364,0.2123,0.2122,0.2121,0.212,0,0.1908,0.1923,0.1944,0.1951,0.1974,0.2002,0.2015,0.2052,0.2057,0.2067,0.216,0.2172,0.2209,0.2245,0.2215,0.234,0.2316,0.2291,0.2211,0.2341,0.2372,0.2391,0.2135,0.2132,0.2129,0.2127,0,0,0.1925,0.1957,0.1965,0.1978,0.2013,0.2029,0.2102,0.215,0.219,0.2246,0.2304,0.2387,0.2388,0.2401,0.2402,0.2462,0.2597,0.2426,0.2426,0.2453,0.2751,0.2604,0.2608,0.2615,0.2619,0.2622,0.2737,0,0.1954,0.1997,0.2009,0.2066,0.2085,0.2116,0.2177,0.2232,0.2279,0.2343,0.2406,0.2462,0.2454,0.2477,0.2552,0.2568,0.2648,0.2566,0.2628,0.2629,0.2474,0.2625,0.2357,0.2426,0.2754,0.2757,0.2759,0,0.1964,0.1993,0.204,0.21,0.2114,0.2154,0.2237,0.229,0.2394,0.2436,0.2527,0.2552,0.2654,0.2618,0.2759,0.2712,0.2746,0.2765,0.277,0.2579,0.2515,0.2346,0.2445,0.2788,0.2786,0.2784,0.2782,0,0.194,0.201,0.2044,0.2064,0.2135,0.2177,0.2223,0.2319,0.2367,0.2486,0.2533,0.266,0.2713,0.2798,0.2845,0.2814,0.2982,0.294,0.2854,0.2844,0.2592,0.2552,0.3059,0.3059,0.3059,0.3059,0.3058,0,0.1933,0.1959,0.2037,0.205,0.2101,0.2167,0.2232,0.23,0.2404,0.2462,0.2571,0.2641,0.2763,0.286,0.2897,0.2932,0.304,0.2883,0.2875,0.2639,0.2604,0.2881,0.2858,0.3063,0.3062,0.3061,0.306,0,0.1869,0.1924,0.1959,0.2048,0.2077,0.2108,0.2204,0.225,0.2368,0.2449,0.2487,0.2654,0.2782,0.2892,0.3022,0.2976,0.3026,0.3017,0.2714,0.2666,0.2824,0.2809,0.2919,0.2915,0.2912,0.2909,0.2906,0,0.1822,0.184,0.1928,0.1944,0.1977,0.2041,0.2078,0.2205,0.2255,0.2442,0.2471,0.2644,0.2732,0.2879,0.2832,0.2875,0.3015,0.2642,0.2515,0.2834,0.2816,0.2806,0.2796,0.2267,0.226,0.2254,0.2249,0,0.1729,0.1771,0.1798,0.1847,0.1886,0.1931,0.2004,0.2043,0.2192,0.2284,0.2416,0.2508,0.2612,0.253,0.2569,0.2549,0.2599,0.2513,0.2977,0.232,0.2222,0.2203,0.2215,0.2195,0.2201,0.2204,0.2207,0.221,0.1644,0.165,0.1702,0.1742,0.1782,0.1822,0.1842,0.1932,0.2015,0.2085,0.2226,0.2258,0.2271,0.2165,0.2145,0.2108,0.2263,0.216,0.2178,0.2204,0.2083,0.1982,0.1888,0.1891,0.1894,0.1897,0.1899,0,0.1552,0.1583,0.1598,0.1649,0.1657,0.1727,0.1788,0.1795,0.1864,0.1867,0.1921,0.1718,0.168,0.1776,0.1596,0.1564,0.1553,0.1548,0.1526,0.1577,0.1623,0.1475,0.1117,0.1116,0.1114,0.1113,0,0,0.1501,0.1496,0.1522,0.152,0.156,0.1571,0.1597,0.1614,0.1617,0.1502,0.1433,0.1464,0.1612,0.1298,0.127,0.1189,0.1378,0.1135,0.1746,0.1763,0.1808,0.1941,0.1764,0,0,0,0,0]},{"header":{"parameterUnit":"m.s-1","parameterCategory":2,"la1":30.2991,"la2":30.254,"lo1":-89.0895,"lo2":-89.0444,"dy":0.0017,"dx":0.0017,"nx":28,"ny":28,"refTime":"2025-07-05T03:00:00:Z","depth":"2","parameterNumber":3,"parameterNumberName":"V-component_of_CURRENTS"},"data":[0,0,0,0,0,0,0,0,0,0,0,0,0,0,0,0,0,0,0,0,0,0,0,0,0,0,0,0,0,0,0,0,0,0,0,0,0,0,0,0,0,0,0,0,0,0,0,0,0,0,0,0,0,0,0,0,0,0,-0.0149,-0.015,0,-0.0187,-0.0187,-0.0188,-0.0216,-0.0217,-0.0217,-0.0217,-0.0277,-0.0278,-0.0279,0,0,0,0,0,0,0,0,0,0,0,0,0,-0.0074,-0.0076,-0.0149,-0.015,-0.015,-0.0187,-0.0187,-0.0188,-0.0216,-0.0217,-0.0217,-0.0218,-0.0276,-0.0278,-0.0279,0,0,0,0,0,0,0,0,0,0,0,0,0,-0.0108,-0.0076,-0.0149,-0.017,-0.0172,-0.0187,-0.0187,-0.0188,-0.0216,-0.0217,-0.0217,-0.0218,-0.0276,-0.0278,-0.028,-0.028,0,0,-0.0285,-0.0286,0,0,0,0,0,0,0,0,-0.0106,-0.0111,-0.0166,-0.0168,-0.0171,-0.0199,-0.0183,-0.022,-0.0216,-0.0198,-0.0217,-0.0218,-0.0253,-0.0257,-0.0261,-0.0283,-0.0286,-0.0286,-0.0287,-0.0287,-0.0288,0,0,0,0,0,0,0,-0.0104,-0.0109,-0.0163,-0.0167,-0.017,-0.0168,-0.0173,-0.019,-0.0222,-0.02,-0.0202,-0.0208,-0.0254,-0.0259,-0.0263,-0.0286,-0.0285,-0.0287,-0.0288,-0.0289,-0.0337,-0.0338,0,0,0,0,0,0,-0.0102,-0.0107,-0.0162,-0.0164,-0.014,-0.0169,-0.0175,-0.0188,-0.0221,-0.0227,-0.0208,-0.0209,-0.0255,-0.026,-0.0265,-0.0269,-0.0287,-0.0289,-0.029,-0.0337,-0.0337,-0.0338,0,0,0,0,0,0,-0.0101,-0.0107,-0.016,-0.0137,-0.0144,-0.017,-0.0184,-0.0189,-0.0201,-0.0227,-0.0233,-0.0216,-0.0256,-0.0262,-0.0284,-0.0271,-0.029,-0.0292,-0.0337,-0.0337,-0.0338,-0.0276,0,0,0,0,0,0,-0.0098,-0.0106,-0.0118,-0.0137,-0.0145,-0.017,-0.0184,-0.0189,-0.0204,-0.0207,-0.0236,-0.0242,-0.0257,-0.0281,-0.0286,-0.0274,-0.0293,-0.0337,-0.0337,-0.0337,-0.0278,-0.0274,-0.0271,0,0,0,0,0,-0.0096,-0.0112,-0.0119,-0.0126,-0.016,-0.017,-0.0174,-0.0193,-0.0204,-0.0207,-0.0229,-0.0241,-0.0287,-0.0283,-0.0288,-0.0277,-0.0337,-0.0337,-0.0337,-0.0279,-0.0275,-0.0271,0,0,0,0,0,0,-0.0096,-0.0117,-0.0125,-0.015,-0.0159,-0.0176,-0.0185,-0.0195,-0.0213,-0.0219,-0.0243,-0.025,-0.0265,-0.0285,-0.028,-0.0295,-0.0314,-0.0316,-0.0268,-0.0264,-0.0261,-0.0228,-0.0295,0,0,0,0,0,-0.0098,-0.011,-0.0128,-0.0147,-0.0151,-0.0167,-0.0175,-0.0185,-0.0202,-0.0211,-0.023,-0.0253,-0.0269,-0.0278,-0.0298,-0.0304,-0.0329,-0.0303,-0.03,-0.0296,-0.0276,-0.0312,-0.0309,-0.0339,-0.0339,-0.0339,0,0,-0.0105,-0.0117,-0.0126,-0.0146,-0.0155,-0.0152,-0.0173,-0.0184,-0.0178,-0.0215,-0.0218,-0.0243,-0.0271,-0.0277,-0.0285,-0.0291,-0.0305,-0.0297,-0.0294,-0.0274,-0.0312,-0.0309,-0.0306,-0.0339,-0.0339,-0.0339,0,0,-0.0107,-0.0131,-0.0133,-0.0135,-0.0145,-0.015,-0.0153,-0.0167,-0.0171,-0.0177,-0.0202,-0.0217,-0.0244,-0.0253,-0.0263,-0.0255,-0.0288,-0.0268,-0.0217,-0.0253,-0.025,-0.0248,-0.0285,-0.0287,-0.0262,-0.0262,-0.0262,0,-0.0116,-0.0116,-0.0136,-0.013,-0.0122,-0.0146,-0.0131,-0.014,-0.0158,-0.0149,-0.0173,-0.0196,-0.0227,-0.0219,-0.0217,-0.0243,-0.0272,-0.0227,-0.0246,-0.0245,-0.0244,-0.0282,-0.0284,-0.0259,-0.0259,-0.026,-0.026,0,-0.0108,-0.0106,-0.0106,-0.01,-0.0097,-0.0091,-0.0095,-0.0093,-0.0101,-0.0103,-0.0102,-0.014,-0.0145,-0.0166,-0.0187,-0.0186,-0.0213,-0.024,-0.025,-0.0236,-0.0279,-0.0282,-0.0255,-0.0256,-0.0257,-0.0257,0,0,-0.0124,-0.0104,-0.0101,-0.0077,-0.0074,-0.0065,-0.0051,-0.0032,-0.0004,-0.0033,0.0,-0.0037,-0.005,-0.0062,-0.0095,-0.0126,-0.0154,-0.0171,-0.0175,-0.0195,-0.0236,-0.0217,-0.0219,-0.0187,-0.0187,-0.0187,-0.0271,0,-0.0106,-0.0076,-0.0069,-0.0028,-0.0007,-0.0003,0.0025,0.0039,0.0042,0.0064,0.0031,0.004,-0.0013,-0.0009,-0.0047,-0.012,-0.016,-0.0129,-0.0256,-0.0259,-0.0234,-0.0221,-0.0215,-0.0285,-0.0275,-0.0276,-0.0276,0,-0.0089,-0.0066,-0.0023,0.0037,0.0049,0.0074,0.0133,0.0153,0.0173,0.0181,0.0181,0.0153,0.0127,0.0067,-0.0041,-0.002,-0.0116,-0.0188,-0.0193,-0.0192,-0.0246,-0.0297,-0.0292,-0.0283,-0.0282,-0.0282,-0.0281,0,-0.0068,-0.0024,0.0019,0.0034,0.0086,0.0123,0.0155,0.0192,0.0228,0.0257,0.0282,0.0244,0.0229,0.0116,-0.0017,-0.0033,-0.0152,-0.0199,-0.0276,-0.0277,-0.0301,-0.0303,-0.0288,-0.0288,-0.0288,-0.0288,-0.0287,0,-0.0042,-0.0003,0.0037,0.0062,0.0134,0.0162,0.0239,0.027,0.032,0.0367,0.0346,0.0367,0.0238,0.0158,0.0017,-0.0122,-0.0129,-0.0253,-0.0289,-0.0281,-0.028,-0.0301,-0.0301,-0.0291,-0.029,-0.0289,-0.0289,0,-0.0021,0.0,0.0055,0.0117,0.0144,0.0196,0.0285,0.0342,0.0388,0.0446,0.046,0.0452,0.0367,0.0228,0.0049,-0.0066,-0.0212,-0.0272,-0.0246,-0.0276,-0.0328,-0.0325,-0.036,-0.036,-0.036,-0.036,-0.036,0,-0.0001,0.0025,0.0088,0.0128,0.0161,0.0238,0.03,0.0366,0.0424,0.0492,0.0522,0.0486,0.0473,0.0256,0.0047,-0.0164,-0.0207,-0.0297,-0.032,-0.0299,-0.0332,-0.0329,-0.0325,-0.0348,-0.0348,-0.0348,-0.0348,0,0.0039,0.0051,0.0092,0.0165,0.0231,0.0309,0.0397,0.0451,0.0528,0.0587,0.0648,0.065,0.0474,0.0297,0.0042,-0.0111,-0.0252,-0.0299,-0.0293,-0.0311,-0.0289,-0.0321,-0.0318,-0.0346,-0.0346,-0.0346,-0.0347,-0.0347,0.0069,0.0101,0.0149,0.0223,0.029,0.0387,0.0468,0.0561,0.0664,0.0768,0.0734,0.0745,0.0522,0.0223,0.0005,-0.0221,-0.0242,-0.0342,-0.0342,-0.0343,-0.0307,-0.0283,-0.0334,-0.0334,-0.0334,-0.0334,-0.0334,0,0.0126,0.0158,0.0216,0.0307,0.0387,0.0421,0.0545,0.0641,0.0776,0.0827,0.0888,0.0683,0.0498,0.0262,-0.0073,-0.0275,-0.03,-0.0328,-0.0331,-0.0332,-0.0333,-0.0296,-0.0321,-0.0321,-0.0321,-0.0321,0,0,0.0165,0.0226,0.0252,0.0386,0.0453,0.0585,0.0665,0.08,0.0875,0.0934,0.0921,0.0875,0.056,0.0323,0.0043,-0.0129,-0.0174,-0.0159,-0.0157,-0.013,-0.0127,-0.034,-0.0284,0,0,0,0,0]}],[{"header":{"parameterUnit":"m.s-1","parameterCategory":2,"la1":30.2991,"la2":30.254,"lo1":-89.0895,"lo2":-89.0444,"dy":0.0017,"dx":0.0017,"nx":28,"ny":28,"refTime":"2025-07-05T03:00:00:Z","depth":"4","parameterNumber":2,"parameterNumberName":"U-component_of_CURRENTS"},"data":[0,0,0,0,0,0,0,0,0,0,0,0,0,0,0,0,0,0,0,0,0,0,0,0,0,0,0,0,0,0,0,0,0,0,0,0,0,0,0,0,0,0,0,0,0,0,0,0,0,0,0,0,0,0,0,0,0,0,0.0368,0.0369,0,0.0447,0.0448,0.0448,0.0577,0.058,0.0583,0.0586,0.0856,0.086,0.0865,0,0,0,0,0,0,0,0,0,0,0,0,0,0.0258,0.026,0.0368,0.0369,0.0371,0.0447,0.0448,0.0448,0.0577,0.058,0.0584,0.0587,0.0854,0.086,0.0865,0,0,0,0,0,0,0,0,0,0,0,0,0,0.0314,0.026,0.0368,0.0448,0.0456,0.0447,0.0448,0.0448,0.0576,0.058,0.0584,0.0588,0.0852,0.0859,0.0866,0.0822,0,0,0.0887,0.089,0,0,0,0,0,0,0,0,0.031,0.0317,0.0435,0.0442,0.0452,0.0511,0.0508,0.0585,0.0575,0.0525,0.0586,0.0591,0.0758,0.0773,0.0768,0.0835,0.0847,0.0887,0.0891,0.0894,0.0896,0,0,0,0,0,0,0,0.0307,0.0314,0.0394,0.0436,0.0446,0.0457,0.0469,0.0522,0.0616,0.053,0.0541,0.0556,0.0764,0.0761,0.0776,0.0851,0.0887,0.0893,0.0897,0.09,0.1136,0.1138,0,0,0,0,0,0,0.0306,0.031,0.0392,0.0397,0.0396,0.0456,0.047,0.0483,0.0612,0.0636,0.0552,0.0562,0.0747,0.0768,0.0787,0.097,0.0894,0.0901,0.0904,0.1134,0.1137,0.1139,0,0,0,0,0,0,0.0303,0.0312,0.0389,0.036,0.0371,0.0454,0.0468,0.0483,0.055,0.0628,0.0656,0.0613,0.0752,0.0777,0.0918,0.0974,0.0904,0.091,0.1131,0.1135,0.1138,0.1192,0,0,0,0,0,0,0.03,0.031,0.0326,0.036,0.0373,0.043,0.0465,0.0482,0.0551,0.0566,0.0688,0.0713,0.0757,0.0908,0.0925,0.0982,0.0915,0.1129,0.1133,0.1137,0.1187,0.1196,0.1204,0,0,0,0,0,0.0295,0.0303,0.0326,0.0336,0.0389,0.0431,0.0439,0.0507,0.0551,0.0582,0.069,0.0713,0.0946,0.0916,0.0935,0.0995,0.1127,0.1132,0.1136,0.1183,0.1195,0.1204,0,0,0,0,0,0,0.0267,0.0318,0.0344,0.0369,0.0418,0.0457,0.0491,0.0531,0.0628,0.0692,0.0746,0.0779,0.0917,0.0944,0.0909,0.1073,0.1036,0.1045,0.1065,0.1077,0.1085,0.1075,0.0921,0,0,0,0,0,0.0261,0.0288,0.0337,0.0364,0.0392,0.0447,0.0477,0.0549,0.063,0.0679,0.0763,0.086,0.0932,0.1002,0.1072,0.1163,0.1144,0.1212,0.122,0.1227,0.1233,0.1247,0.1257,0.1155,0.1155,0.1155,0,0,0.0257,0.0291,0.0307,0.0361,0.0405,0.0454,0.0478,0.0574,0.0628,0.0695,0.0821,0.0901,0.0963,0.1076,0.1138,0.1123,0.1243,0.1234,0.1239,0.1241,0.1253,0.1263,0.1271,0.1158,0.1158,0.1157,0,0,0.0263,0.0298,0.0328,0.0372,0.0471,0.0507,0.0547,0.0642,0.0703,0.083,0.0884,0.1001,0.1125,0.117,0.1203,0.1295,0.1284,0.1331,0.1379,0.1394,0.1401,0.1408,0.1373,0.1376,0.1341,0.1341,0.1341,0,0.027,0.0303,0.0344,0.0391,0.0436,0.0535,0.0593,0.0646,0.0787,0.0838,0.0904,0.1092,0.1156,0.1242,0.1293,0.1314,0.131,0.1334,0.1402,0.1409,0.1415,0.1377,0.138,0.1344,0.1344,0.1343,0.1343,0,0.03,0.0337,0.0365,0.0449,0.0499,0.0582,0.0663,0.0755,0.0861,0.0921,0.1077,0.1179,0.1292,0.1324,0.1351,0.1428,0.1405,0.1403,0.1369,0.1428,0.1385,0.1387,0.1348,0.1347,0.1346,0.1346,0,0,0.028,0.0371,0.038,0.0425,0.0555,0.06,0.07,0.0794,0.0876,0.103,0.1109,0.1262,0.1351,0.1393,0.1445,0.1472,0.1509,0.1478,0.1477,0.1429,0.152,0.1363,0.135,0.1533,0.1534,0.1535,0.1463,0,0.0301,0.037,0.0422,0.0508,0.0552,0.0663,0.0731,0.0847,0.0964,0.1067,0.1174,0.1299,0.1359,0.1459,0.1495,0.1515,0.1523,0.1527,0.1482,0.1479,0.1323,0.135,0.154,0.1464,0.1465,0.1465,0.1465,0,0.0308,0.0351,0.0431,0.0534,0.0569,0.0659,0.0808,0.0892,0.1032,0.1127,0.1272,0.136,0.1461,0.1494,0.1555,0.1567,0.1558,0.1549,0.1546,0.1384,0.1328,0.1401,0.1468,0.1468,0.1467,0.1467,0.1467,0,0.0251,0.0351,0.0414,0.0455,0.0594,0.0681,0.0786,0.094,0.1018,0.1186,0.1274,0.1402,0.1487,0.1522,0.1527,0.1575,0.1517,0.1568,0.1397,0.1384,0.1521,0.1515,0.1573,0.1573,0.1574,0.1574,0.1574,0,0.0236,0.028,0.0411,0.045,0.0555,0.0679,0.0829,0.0939,0.1098,0.1162,0.1328,0.1379,0.1508,0.1495,0.1504,0.1424,0.15,0.1397,0.1362,0.1543,0.154,0.152,0.1515,0.1571,0.1572,0.1572,0.1573,0,0.0165,0.0246,0.032,0.0477,0.0536,0.0631,0.0844,0.093,0.1106,0.1189,0.1248,0.1372,0.1382,0.1407,0.1408,0.1372,0.1315,0.1246,0.1375,0.1349,0.119,0.1189,0.1122,0.1116,0.1111,0.1107,0.1103,0,0.0144,0.0172,0.0317,0.038,0.0476,0.0632,0.0724,0.0918,0.098,0.1141,0.1129,0.1211,0.1261,0.1137,0.1177,0.1137,0.1125,0.1082,0.1223,0.1174,0.1147,0.1154,0.116,0.1095,0.1094,0.1093,0.1091,0,0.0093,0.0153,0.0214,0.0325,0.0441,0.0539,0.068,0.0709,0.0878,0.1011,0.1032,0.1068,0.103,0.1047,0.0981,0.0957,0.1127,0.1032,0.1046,0.1178,0.1141,0.1121,0.1132,0.1074,0.1076,0.1078,0.1079,0,0.0068,0.0087,0.0171,0.0275,0.0394,0.0454,0.0528,0.0604,0.0695,0.086,0.082,0.0904,0.098,0.094,0.0865,0.084,0.0898,0.0909,0.0932,0.0951,0.0929,0.0859,0.0666,0,0,0,0,0,0.0048,0.0058,0.0119,0.0224,0.0332,0.0402,0.0495,0.0553,0.0661,0.0648,0.0763,0.0734,0.0746,0.0769,0.072,0.0775,0.0867,0.0711,0.0884,0.0976,0.0997,0.0987,0,0,0,0,0,0,0.0035,0.0074,0.0084,0.0173,0.0236,0.0329,0.0389,0.0439,0.0447,0.0563,0.0569,0.068,0.0684,0.0772,0.0708,0.071,0.08,0.0759,0.0756,0.0965,0.0983,0.1,0.0997,0,0,0,0,0]},{"header":{"parameterUnit":"m.s-1","parameterCategory":2,"la1":30.2991,"la2":30.254,"lo1":-89.0895,"lo2":-89.0444,"dy":0.0017,"dx":0.0017,"nx":28,"ny":28,"refTime":"2025-07-05T03:00:00:Z","depth":"4","parameterNumber":3,"parameterNumberName":"V-component_of_CURRENTS"},"data":[0,0,0,0,0,0,0,0,0,0,0,0,0,0,0,0,0,0,0,0,0,0,0,0,0,0,0,0,0,0,0,0,0,0,0,0,0,0,0,0,0,0,0,0,0,0,0,0,0,0,0,0,0,0,0,0,0,0,0.0341,0.0341,0,0.0344,0.0343,0.0342,0.0365,0.0367,0.0368,0.0369,0.0277,0.0273,0.0269,0,0,0,0,0,0,0,0,0,0,0,0,0,0.0323,0.0323,0.0341,0.0341,0.0342,0.0344,0.0343,0.0342,0.0365,0.0367,0.0368,0.037,0.0278,0.0273,0.0269,0,0,0,0,0,0,0,0,0,0,0,0,0,0.0321,0.0323,0.034,0.036,0.0362,0.0344,0.0343,0.0342,0.0365,0.0367,0.0369,0.0371,0.0279,0.0274,0.0268,0.0195,0,0,0.0252,0.0249,0,0,0,0,0,0,0,0,0.0321,0.0321,0.0356,0.0359,0.0361,0.0363,0.0304,0.0291,0.0364,0.0355,0.0369,0.0372,0.0301,0.0293,0.0279,0.019,0.0186,0.0251,0.0248,0.0245,0.0244,0,0,0,0,0,0,0,0.0322,0.0321,0.0333,0.0357,0.036,0.0358,0.0359,0.0301,0.0309,0.0356,0.036,0.0372,0.03,0.0285,0.0277,0.0185,0.0251,0.0246,0.0243,0.0241,0.0011,0.0009,0,0,0,0,0,0,0.0337,0.0321,0.0334,0.0334,0.0355,0.0358,0.0359,0.0354,0.0311,0.031,0.0371,0.0374,0.0293,0.0284,0.0274,0.0176,0.0245,0.024,0.0237,0.0014,0.0011,0.0008,0,0,0,0,0,0,0.0336,0.0337,0.0334,0.0335,0.0336,0.0357,0.0351,0.0353,0.0351,0.0325,0.0321,0.0369,0.0294,0.0282,0.0224,0.0173,0.0238,0.0233,0.0017,0.0013,0.0009,-0.0015,0,0,0,0,0,0,0.0335,0.0336,0.0336,0.0336,0.0337,0.0329,0.035,0.0352,0.0359,0.0362,0.0321,0.0315,0.0295,0.0232,0.0218,0.0167,0.0228,0.0021,0.0015,0.001,-0.0011,-0.0019,-0.0027,0,0,0,0,0,0.0334,0.0333,0.0335,0.0338,0.0336,0.0329,0.0328,0.0345,0.0357,0.0349,0.0319,0.0317,0.0189,0.0226,0.021,0.0156,0.0023,0.0017,0.0011,-0.0007,-0.0018,-0.0027,0,0,0,0,0,0,0.0326,0.0336,0.0339,0.034,0.0338,0.0337,0.034,0.0342,0.0312,0.0316,0.0287,0.0276,0.0203,0.0178,0.0219,0.0071,0.0101,0.0092,0.0093,0.0083,0.0075,0.0108,0.0224,0,0,0,0,0,0.0323,0.0322,0.0328,0.0327,0.0329,0.0329,0.033,0.0337,0.0317,0.0308,0.027,0.0219,0.0158,0.0126,0.0071,-0.0008,-0.0002,-0.0058,-0.0066,-0.0072,-0.0059,-0.0102,-0.0111,-0.0013,-0.0013,-0.0013,0,0,0.0321,0.0327,0.0327,0.0325,0.0325,0.0314,0.0332,0.0334,0.0317,0.0297,0.0243,0.0191,0.0131,0.0047,0.001,0.0025,-0.0099,-0.008,-0.0085,-0.0068,-0.0109,-0.0118,-0.0126,-0.0017,-0.0016,-0.0016,0,0,0.0314,0.0318,0.0315,0.0311,0.0318,0.0311,0.0312,0.0297,0.0287,0.0226,0.0202,0.0133,0.0033,-0.0014,-0.0052,-0.0141,-0.0138,-0.018,-0.0197,-0.024,-0.0247,-0.0254,-0.0248,-0.0253,-0.0187,-0.0187,-0.0187,0,0.0317,0.0307,0.0311,0.0306,0.0309,0.0308,0.0302,0.0278,0.0239,0.0218,0.0207,0.0057,0.0006,-0.0085,-0.0124,-0.0157,-0.0164,-0.0149,-0.0246,-0.0253,-0.0259,-0.0251,-0.0257,-0.0189,-0.0188,-0.0188,-0.0188,0,0.0301,0.0297,0.0296,0.0284,0.028,0.0276,0.0259,0.0228,0.0202,0.0174,0.0083,0.0005,-0.0075,-0.0128,-0.0158,-0.0246,-0.023,-0.0245,-0.0208,-0.0269,-0.0259,-0.0264,-0.0191,-0.0191,-0.019,-0.019,0,0,0.0296,0.029,0.0287,0.0293,0.0274,0.0276,0.0232,0.02,0.0184,0.0102,0.0062,-0.0076,-0.0108,-0.0153,-0.021,-0.0263,-0.0322,-0.0279,-0.0281,-0.0248,-0.0387,-0.0356,-0.0358,-0.0358,-0.036,-0.0361,-0.0357,0,0.0284,0.0285,0.0272,0.0265,0.027,0.0251,0.0218,0.0186,0.0142,0.0092,0.0008,-0.0059,-0.0119,-0.0164,-0.0232,-0.0296,-0.034,-0.0319,-0.0354,-0.0354,-0.0299,-0.0366,-0.0366,-0.036,-0.0362,-0.0362,-0.0363,0,0.0271,0.0277,0.0282,0.0282,0.0282,0.0267,0.024,0.0208,0.0138,0.01,0.0018,-0.0035,-0.0133,-0.0171,-0.0295,-0.0281,-0.0337,-0.0382,-0.0383,-0.0345,-0.0335,-0.0294,-0.0372,-0.0372,-0.0371,-0.037,-0.037,0,0.0299,0.0283,0.0298,0.0298,0.0289,0.0278,0.0258,0.0206,0.0202,0.011,0.0097,-0.0025,-0.007,-0.0176,-0.0277,-0.0293,-0.0385,-0.0411,-0.0427,-0.0423,-0.0434,-0.0427,-0.0492,-0.0492,-0.0492,-0.0492,-0.0492,0,0.0312,0.0325,0.0313,0.0333,0.0341,0.0311,0.0314,0.0267,0.0227,0.0214,0.011,0.0072,-0.0078,-0.0147,-0.0254,-0.0344,-0.0365,-0.0428,-0.0432,-0.0445,-0.044,-0.0436,-0.0429,-0.0492,-0.0492,-0.0492,-0.0492,0,0.0356,0.0354,0.0385,0.0376,0.0369,0.038,0.0379,0.0378,0.0321,0.0301,0.0278,0.0162,0.0042,-0.0071,-0.0226,-0.0288,-0.0391,-0.0415,-0.0379,-0.038,-0.04,-0.0396,-0.0434,-0.0433,-0.0432,-0.0432,-0.0431,0,0.038,0.0393,0.0427,0.0455,0.0456,0.0462,0.0468,0.0428,0.0415,0.0344,0.0327,0.0229,0.0133,-0.0034,-0.018,-0.0335,-0.0371,-0.0385,-0.0445,-0.04,-0.0401,-0.0397,-0.0394,-0.043,-0.043,-0.043,-0.0429,0,0.0402,0.0424,0.0462,0.0513,0.0542,0.057,0.0553,0.0543,0.0475,0.0475,0.0363,0.0253,0.0134,-0.0038,-0.0136,-0.0265,-0.0362,-0.0379,-0.0382,-0.0439,-0.0396,-0.0397,-0.0394,-0.0427,-0.0427,-0.0428,-0.0428,0,0.0422,0.0447,0.0487,0.0534,0.0612,0.0611,0.0602,0.0551,0.0533,0.0431,0.0399,0.0246,0.0168,-0.0,-0.0111,-0.0211,-0.0259,-0.0286,-0.0295,-0.0299,-0.0276,-0.0202,-0.0179,0,0,0,0,0,0.0408,0.0418,0.0474,0.0524,0.0626,0.0645,0.063,0.06,0.0539,0.0477,0.043,0.0302,0.0117,0.0025,-0.0076,-0.0116,-0.0278,-0.0234,-0.0314,-0.0414,-0.0416,-0.0412,0,0,0,0,0,0,0.0389,0.0444,0.0453,0.0517,0.0561,0.062,0.0618,0.0567,0.0503,0.0445,0.0337,0.0317,0.0124,0.0187,-0.0062,-0.0094,-0.0151,-0.0312,-0.0313,-0.0412,-0.0414,-0.0417,-0.0413,0,0,0,0,0]}]]